User: anonymous   Login
Location: Unspecified
(40.9833°N, 0.0000°E)
Time: 01:30:08
(UTC+00:00)
Language:

RS-15 - Orbit

View from above orbital plane
View from above orbital plane
View from above satellite
View from above satellite

Ground track
Ground track

The orbit data is extracted from the following two-line orbital elements,

1 23439U 94085A   19230.88987834 -.00000050 +00000-0 -21762-3 0  9995
2 23439 064.8195 017.1570 0145977 101.3659 260.3703 11.27568668014797
Epoch (UTC): 18 August 2019 21:21:25
Eccentricity: 0.0145977
inclination: 64.8195°
perigee height: 1900 km
apogee height: 2145 km
right ascension of ascending node: 17.1570°
argument of perigee: 101.3659°
revolutions per day: 11.27568668
mean anomaly at epoch: 260.3703°
orbit number at epoch: 1479

The dashed part of the orbit path shows where the satellite is in the earth's shadow,  

DLR